Regional Weather Roundup
Issued by NWS

Home | Current Version | Previous Version | Graphics & Text | Print | Product List | Glossary On
Versions: 1 2 3 4 5 6 7 8 9 10 11 12 13 14 15 16 17 18 19 20 21 22 23 24 25 26 27 28 29 30 31 32 33 34 35 36 37 38 39 40 41 42 43 44 45 46 47 48 49 50
000
ASUS43 KOAX 280410
RWRNE

WEATHER ROUNDUP FOR NEBRASKA
NATIONAL WEATHER SERVICE OMAHA NE
1100 PM CDT THU AUG 27 2015

NOTES: SATELLITE DATA IS BEING USED TO AUGMENT CLOUD COVER ABOVE
       12000 FEET.
       "FAIR" INDICATES FEW OR NO CLOUDS BELOW 12,000 FEET WITH NO
       SIGNIFICANT WEATHER AND/OR OBSTRUCTIONS TO VISIBILITY.

  * THESE STATIONS DO NOT REPORT WEATHER SUCH AS RAIN...SNOW OR FOG.

NEZ001>004-019>022-054>056-280500-
NEBRASKA PANHANDLE

CITY           SKY/WX    TMP DP  RH WIND       PRES   REMARKS
SCOTTSBLUFF    MOCLDY    66  55  67 CALM      30.07R
ALLIANCE       PTCLDY    57  54  89 NW5       30.07R
CHADRON        PTCLDY    58  54  86 CALM      30.04R
KIMBALL        CLEAR     61  54  77 CALM      30.12R
SIDNEY         PTCLDY    62  54  74 N7        30.09R
$$

NEZ057>060-069>072-079>082-280500-
SOUTHWEST NEBRASKA

CITY           SKY/WX    TMP DP  RH WIND       PRES   REMARKS
NORTH PLATTE   PTCLDY    70  65  84 W8        29.93R
IMPERIAL       MOCLDY    70  60  70 N9        29.99R
LEXINGTON      CLEAR     71  67  88 NW9       29.86R
MCCOOK         MOCLDY    77  65  66 N15       29.89R
OGALLALA       MOCLDY    69  61  76 N12       30.00R
$$

NEZ005>010-023>029-035>040-094-280500-
NORTH CENTRAL NEBRASKA

CITY           SKY/WX    TMP DP  RH WIND       PRES   REMARKS
AINSWORTH      LGT RAIN  71  70  97 N7        29.94S
BROKEN BOW     PTCLDY    69  66  90 N6        29.88R
O`NEILL        MOCLDY    69  68  96 SE9       29.91R
ORD            CLOUDY    71  68  90 N9        29.85R
THEDFORD       MOCLDY    70  67  90 N8        29.96S
$$

NEZ041-046>049-061>064-073>077-083>087-280500-
SOUTH CENTRAL NEBRASKA

CITY           SKY/WX    TMP DP  RH WIND       PRES   REMARKS
GRAND ISLAND   CLOUDY    75  66  73 S15       29.84R
AURORA         CLOUDY    75  65  70 S15G25    29.84R
HASTINGS       CLOUDY    75  66  73 S15G23    29.83R
HEBRON         CLOUDY    75  64  67 S16G23    29.84F
HOLDREGE       PTCLDY    71  64  76 S9        29.84S
KEARNEY *      MOCLDY    73  64  73 S13G18    29.84R
YORK           CLOUDY    75  66  73 S14       29.84R
$$

NEZ011>018-030>034-042>045-280500-
NORTHEAST NEBRASKA

CITY           SKY/WX    TMP DP  RH WIND       PRES   REMARKS
NORFOLK        HVY RAIN  70  68  93 E16       29.88F FOG
ALBION         CLOUDY    70  66  89 SE14      29.85F
BLAIR          CLOUDY    70  65  82 SE8       29.93S
COLUMBUS *     CLOUDY   N/A N/A N/A E12G18    29.87R
FREMONT        LGT RAIN  73  67  82 E6        29.93F
TEKAMAH        CLOUDY    71  67  87 E7        29.94F
WAYNE          LGT RAIN  71  69  92 E12       29.93S
$$

NEZ050>053-065>068-078-088>093-280500-
SOUTHEAST NEBRASKA

CITY           SKY/WX    TMP DP  RH WIND       PRES   REMARKS
LINCOLN        LGT RAIN  73  65  75 SE18G30   29.83F
OMAHA EPPLEY   LGT RAIN  72  66  81 SE15      29.93F
BEATRICE       CLOUDY    71  65  81 S15       29.87F
FALLS CITY     CLOUDY    70  67  90 SE10      29.93F
NEBRASKA CITY  RAIN      70  67  91 S7        29.94S
PLATTSMOUTH    CLOUDY    70  65  85 SE13      29.92F
$$

NEZ044-045-051>053-067-280500-
OMAHA AREA

CITY           SKY/WX    TMP DP  RH WIND       PRES   REMARKS
OMAHA EPPLEY   LGT RAIN  72  66  81 SE15      29.93F
BLAIR          CLOUDY    70  65  82 SE8       29.93S
FREMONT        LGT RAIN  73  67  82 E6        29.93F
MILLARD        LGT RAIN  73  68  84 SE13      29.90F
OFFUTT AFB     MOCLDY    70  66  87 SE12      29.91F
PLATTSMOUTH    CLOUDY    70  65  85 SE13      29.92F
WAHOO          HVY RAIN  71  68  89 SE6       29.92R
$$



USA.gov is the U.S. government's official web portal to all federal, state and local government web resources and services.